Temperature
27 27 27 27 26 26 25 25 25 25 25 26 26 25 25 24 23 23 22 21 21 20 19 18 18 17 16 16 15 15 15 14 14 13 13 13 13 12 12 12 12 12 12 12
27 27 27 26 26 26 26 26 25 25 25 26 26 25 25 24 23 23 22 21 21 20 20 19 18 17 17 16 16 15 15 14 14 13 13 13 13 12 12 12 12 12 12 12
25 27 26 25 26 26 26 26 26 25 25 26 26 25 25 24 23 23 22 21 20 20 20 19 19 18 17 16 16 15 15 14 14 13 13 13 13 13 12 12 12 12 12 12
25 25 24 26 27 27 26 26 27 26 26 26 25 25 24 23 23 22 21 21 20 20 19 19 19 18 17 17 16 16 15 15 14 14 13 13 13 13 12 12 12 12 12 12
25 25 25 26 27 27 26 26 27 26 26 26 25 24 24 23 22 22 21 20 20 19 19 19 18 18 17 17 17 16 15 15 14 14 13 13 13 13 12 12 12 12 12 12
24 24 24 26 27 27 26 25 26 26 26 25 25 23 23 22 21 21 20 19 19 18 18 18 18 17 17 17 17 16 15 15 14 14 13 13 13 13 13 12 12 12 12 12
23 24 25 26 26 26 24 24 26 25 25 25 24 23 22 22 21 20 19 19 18 18 18 18 17 17 17 17 16 16 15 15 14 14 14 13 13 13 13 13 12 12 12 12
24 23 24 25 25 25 25 25 24 24 24 23 23 22 22 21 20 19 19 18 18 18 17 17 17 17 17 16 16 16 15 15 14 14 14 13 13 13 13 13 13 12 12 12
25 24 24 24 24 23 24 24 23 23 23 22 22 22 21 21 20 19 19 18 18 17 17 17 16 16 16 16 16 15 15 15 14 14 14 14 14 13 13 13 13 12 12 12
25 25 24 23 22 22 22 22 22 22 22 21 21 21 20 20 20 19 18 18 17 17 17 17 16 16 16 16 15 15 15 15 15 14 14 14 14 14 13 13 13 13 12 12
25 24 23 22 22 21 21 21 21 21 21 21 20 20 20 19 19 18 18 17 17 17 16 16 16 16 16 16 15 15 15 15 15 15 15 15 14 14 14 14 13 13 13 13
24 25 24 23 21 20 20 20 20 20 20 19 19 19 19 19 18 18 17 17 16 16 16 16 16 16 16 15 15 15 14 14 14 14 14 14 14 14 14 14 14 13 13 13
25 24 23 22 21 20 20 19 19 19 19 18 18 18 18 18 17 17 16 16 16 16 15 15 15 15 15 15 15 15 14 14 14 14 14 14 14 13 13 14 14 13 13 13
23 22 21 20 19 19 19 18 18 18 18 17 17 17 17 17 16 16 15 15 15 15 15 15 15 15 14 14 14 14 14 13 13 13 13 13 13 13 13 13 13 13 14 13
21 21 21 20 19 18 18 18 18 17 17 16 16 16 16 16 15 15 15 14 14 14 14 14 14 13 13 13 14 13 13 13 13 13 13 13 13 13 13 13 13 13 13 13
21 20 19 19 18 18 17 17 17 16 16 15 15 15 15 15 14 14 13 13 13 13 13 13 12 12 12 12 13 13 12 12 12 12 12 12 12 12 12 13 13 13 13 13
20 19 18 18 17 17 17 17 16 16 15 14 14 14 14 13 13 12 12 12 12 12 11 12 11 11 11 11 12 11 11 11 11 11 11 11 11 11 12 12 12 12 12 13
20 20 19 18 17 17 16 16 15 15 14 13 13 13 13 12 12 12 11 11 11 11 10 10 10 10 10 11 11 10 10 10 10 10 10 10 10 10 11 11 11 11 11 12
19 18 18 17 16 16 15 15 14 13 13 13 12 12 12 11 11 11 11 11 10 10 10 10 9 10 10 10 10 10 9 9 9 9 9 9 9 9 10 10 10 10 10 11
17 17 16 16 15 14 14 13 13 12 12 12 12 11 11 11 10 10 10 10 9 9 9 9 9 9 9 9 9 9 8 8 8 8 8 8 8 8 8 8 9 9 9 9
15 15 14 14 13 13 12 12 12 11 11 11 11 10 10 10 10 9 9 9 8 8 8 8 8 8 8 8 8 8 7 7 7 7 7 7 7 7 7 7 7 8 8 8
13 13 13 12 12 11 11 11 11 10 10 10 10 10 9 9 9 9 8 8 8 8 8 7 7 7 7 7 7 7 7 7 7 7 6 6 6 6 6 6 6 6 7 7
12 12 11 11 11 11 10 10 10 10 9 9 9 9 9 9 8 8 8 7 7 7 7 7 7 7 7 7 7 6 6 6 6 6 6 6 5 5 5 5 5 5 6 6
11 11 11 11 10 10 10 9 9 9 9 8 8 8 8 8 7 7 7 7 7 7 6 6 6 6 6 6 6 6 6 6 5 5 5 5 5 5 5 5 5 5 5 5
11 11 10 10 10 9 9 9 8 8 8 8 8 8 8 7 7 7 7 6 6 6 6 6 6 6 6 6 6 5 5 5 5 5 5 5 4 4 4 4 4 4 4 4
10 10 10 9 9 9 9 8 8 8 8 8 7 7 7 7 7 6 6 6 6 6 6 5 5 5 5 5 5 5 5 5 5 4 4 4 4 4 4 3 3 3 3 3
9 9 9 9 8 8 8 8 8 8 7 7 7 7 7 6 6 6 6 6 6 5 5 5 5 5 5 5 5 4 4 4 4 4 4 3 3 3 3 3 2 2 2 2
Wind_Speed
9 4 4 7 7 7 9 10 9 7 6 5 5 4 3 2 2 2 2 2 3 4 3 4 3 2 1 1 2 2 1 2 3 4 5 5 6 6 6 6 7 6 6 6
11 8 8 10 10 10 11 10 10 9 7 2 4 3 2 1 3 2 2 2 2 2 3 4 4 4 3 2 0 1 1 2 2 3 4 4 5 6 6 6 6 7 7 7
11 8 7 10 11 12 11 9 7 7 4 2 2 2 3 3 2 2 2 2 2 0 1 1 3 4 4 3 2 0 1 2 2 2 3 4 6 6 6 5 5 6 6 6
9 9 10 2 3 1 5 7 7 5 1 1 1 2 3 3 2 2 3 3 3 1 1 1 1 3 2 2 2 1 1 2 1 1 2 4 4 5 6 5 4 4 5 5
8 10 9 4 5 4 4 5 5 4 2 1 0 2 3 4 4 4 4 4 4 2 1 1 2 3 1 0 2 2 1 1 1 1 1 3 4 5 5 5 5 4 4 5
7 7 7 3 8 5 2 4 4 4 3 1 1 1 4 6 6 6 6 5 4 1 0 1 2 2 2 2 1 1 1 1 1 0 1 2 3 4 4 4 4 4 4 3
9 9 4 6 7 4 3 2 6 5 4 2 3 5 5 6 6 6 5 4 3 1 1 1 1 1 2 2 2 2 2 1 1 1 2 2 2 3 4 4 5 5 4 2
8 8 4 8 6 3 4 6 6 5 5 5 5 5 5 5 6 5 5 4 2 1 0 1 1 1 2 2 2 2 1 2 3 3 4 3 2 3 4 4 5 5 4 3
2 1 4 3 4 5 4 4 4 4 4 4 3 4 4 3 4 5 4 4 2 1 1 1 0 1 3 2 1 2 2 3 4 5 4 4 4 4 4 4 3 4 3 3
3 3 6 5 4 4 3 3 3 3 3 2 2 3 4 3 4 4 4 3 2 1 0 0 1 1 1 2 2 3 4 5 5 5 5 4 4 4 3 3 3 3 3 3
7 3 5 5 6 5 4 3 3 3 3 3 3 3 3 4 4 4 4 3 3 1 1 2 1 1 1 2 3 4 5 5 5 4 4 3 4 4 4 3 4 4 3 3
6 5 5 7 9 8 6 5 4 5 5 4 4 4 4 4 4 4 4 4 3 2 2 3 3 3 3 2 3 5 6 6 4 3 3 3 4 4 8 8 9 10 9 7
3 3 5 8 9 8 7 6 5 5 6 5 5 4 4 5 5 5 5 4 4 3 3 4 5 5 5 4 4 5 6 5 4 4 4 4 4 5 5 7 11 12 13 12
7 7 6 7 7 7 8 8 7 7 6 5 5 5 5 5 6 5 5 5 4 4 4 4 5 6 6 6 5 5 6 6 5 4 5 5 5 5 5 5 5 5 10 15
7 6 5 7 9 9 8 8 8 7 7 6 5 5 5 6 6 5 5 5 5 5 5 6 6 7 7 8 8 7 5 4 4 5 5 5 5 5 5 6 5 5 4 5
9 7 8 10 11 10 10 10 9 8 7 7 6 6 6 6 6 6 5 5 6 6 6 6 7 6 6 7 8 7 6 8 7 6 5 5 5 6 5 5 5 5 5 3
11 11 11 12 12 11 10 9 8 8 8 7 6 6 6 6 6 6 5 6 6 6 7 7 7 7 7 8 8 6 6 7 9 6 5 6 6 6 6 6 5 5 5 5
11 11 12 12 12 11 10 10 9 9 8 7 7 6 6 6 6 5 5 5 6 7 7 7 7 7 6 7 7 6 6 6 5 6 6 5 6 6 6 7 7 7 6 6
8 8 9 10 10 10 10 10 10 9 9 8 7 7 6 6 6 6 6 6 6 5 6 7 9 7 6 8 10 6 6 7 6 6 6 8 7 6 6 7 7 7 7 7
6 7 9 10 10 10 10 10 10 9 8 8 8 7 7 6 5 6 7 6 5 4 4 6 6 6 7 9 11 6 6 7 7 6 6 6 7 7 7 8 8 8 7 7
7 9 10 11 10 10 10 10 9 9 8 7 7 7 7 6 5 5 5 5 5 4 5 6 5 5 6 9 9 5 6 6 6 6 7 7 7 7 8 8 8 8 8 8
8 9 10 10 11 10 9 9 9 9 8 7 7 7 6 6 6 5 5 4 4 4 4 4 4 7 11 11 5 5 5 6 6 6 6 7 7 7 7 8 8 8 8 8
8 9 10 11 10 10 10 9 8 8 7 6 6 6 5 4 3 3 3 3 3 4 3 3 6 10 12 7 4 4 5 5 5 6 6 6 7 7 7 8 8 8 8 8
9 9 10 10 10 10 9 8 7 6 6 5 5 5 5 4 3 3 3 4 2 1 1 2 7 10 10 5 4 4 4 4 5 5 5 5 6 6 7 7 7 8 8 9
8 8 9 8 8 7 7 8 7 6 6 5 5 4 3 3 3 2 2 2 1 1 1 3 6 8 5 4 4 5 5 5 5 5 5 5 5 6 6 7 7 8 8 8
6 6 5 5 5 4 5 5 5 5 4 4 4 3 3 3 3 2 1 1 1 1 2 2 3 4 3 4 4 5 4 5 5 5 5 5 6 6 6 7 9 8 8 8
6 5 4 4 4 3 3 4 4 4 4 4 4 3 3 2 2 1 1 0 1 1 2 2 3 3 3 4 4 5 5 4 4 4 5 5 5 5 6 8 7 7 7 8
Wind_Direction
278 259 271 270 260 235 235 253 271 300 328 351 35 48 52 110 141 140 149 169 173 167 177 169 173 138 112 318 330 344 33 45 26 0 2 357 347 347 360 357 351 350 355 356
276 269 261 261 256 249 243 246 259 279 292 334 79 70 32 58 112 131 154 161 171 172 166 179 166 153 166 186 252 318 47 65 39 353 359 355 341 346 354 348 349 356 357 357
283 274 263 260 248 237 235 234 238 256 274 42 50 50 36 31 67 119 122 115 115 232 162 189 150 152 166 168 168 130 56 80 56 6 360 350 347 348 343 343 359 359 354 358
275 271 264 250 80 180 231 231 224 227 235 49 16 69 85 64 50 60 102 111 121 103 89 37 81 107 107 128 131 110 49 53 62 33 359 345 340 335 333 340 352 349 344 352
267 269 267 202 163 172 203 226 209 211 171 117 123 185 140 110 84 64 74 84 91 71 60 39 54 61 32 257 127 113 70 20 34 45 350 329 326 326 328 337 338 336 333 353
268 272 281 103 113 120 225 231 148 134 115 110 271 182 96 92 90 83 79 81 91 94 319 81 70 59 320 311 53 90 78 18 16 357 293 296 307 313 317 319 318 321 333 349
259 267 265 116 119 134 224 111 104 107 103 86 57 68 84 92 92 93 94 95 105 133 43 61 58 11 291 325 18 57 51 0 320 287 268 254 264 282 297 305 307 310 318 326
226 245 237 137 156 172 87 90 85 85 77 73 72 78 81 91 103 109 112 113 122 147 144 103 27 312 309 355 15 37 13 294 283 277 280 286 264 264 273 289 300 300 305 315
243 129 94 84 90 77 61 87 84 81 80 89 102 100 93 98 111 113 114 120 128 179 217 159 160 297 321 333 337 309 269 257 257 258 250 247 251 262 268 270 278 289 298 305
266 174 151 143 124 114 99 92 85 80 88 102 107 102 100 98 98 104 102 105 114 169 276 297 121 100 322 327 310 289 279 270 257 252 254 248 229 237 253 268 283 293 296 299
252 186 149 163 161 150 145 150 137 121 107 98 95 95 96 94 86 91 96 93 95 83 4 349 35 83 28 341 320 300 288 281 277 264 254 257 252 236 239 236 226 244 271 289
245 216 202 180 164 163 164 160 148 140 126 110 102 98 92 88 83 82 86 86 83 57 16 0 15 40 31 4 331 317 310 311 311 306 291 269 265 264 239 234 236 234 233 238
237 88 85 116 142 156 157 151 147 136 123 116 105 100 99 96 88 84 80 73 66 55 31 21 23 24 15 6 343 322 314 312 311 308 305 295 283 274 276 261 244 245 244 241
125 124 139 154 157 161 158 155 148 131 119 111 105 104 102 97 89 80 72 69 66 56 40 31 30 18 3 355 346 328 318 318 325 314 307 297 289 283 276 274 270 257 240 236
173 181 169 151 155 162 161 161 154 141 131 122 112 106 102 100 92 81 67 62 68 61 42 30 28 13 1 358 350 333 323 322 321 311 303 301 297 292 287 283 280 276 267 238
186 179 163 166 170 171 172 171 160 146 136 127 120 113 105 100 94 85 72 63 63 57 47 35 22 1 1 3 348 336 326 325 326 316 313 313 312 312 311 306 300 294 288 277
183 183 182 183 180 178 175 166 154 147 141 133 127 121 117 113 105 95 86 80 74 60 50 37 12 356 12 13 351 335 328 329 331 326 321 322 324 320 316 313 312 310 302 295
196 190 185 183 178 172 165 155 146 140 135 131 128 123 118 112 104 97 87 79 81 67 46 29 3 354 14 14 350 332 330 332 335 337 333 332 325 322 325 325 323 319 314 309
187 179 172 168 164 160 152 145 141 136 134 136 134 124 112 106 101 95 86 71 61 53 32 11 356 4 9 9 354 331 334 337 340 340 340 339 337 334 333 332 331 330 329 328
155 151 151 149 147 144 141 138 136 136 137 138 133 127 121 113 107 102 96 85 67 39 12 4 1 9 6 356 346 332 336 339 341 341 341 340 340 340 339 338 336 335 337 338
144 143 142 142 138 137 137 138 137 137 136 135 133 129 122 113 103 97 100 95 78 35 357 0 15 17 1 342 331 330 335 338 341 344 344 342 341 340 341 342 340 339 339 338
145 145 146 144 143 142 140 139 138 137 134 131 128 127 124 120 116 107 95 94 86 44 12 8 24 5 348 340 331 335 339 343 345 346 345 342 340 339 340 340 338 338 337 336
156 155 154 154 152 147 141 140 140 136 134 134 134 129 120 105 104 117 112 89 74 42 17 6 355 343 339 335 326 334 343 348 349 345 342 340 339 340 340 339 338 338 337 337
162 161 160 157 152 148 146 142 136 136 136 133 131 129 129 131 126 112 107 112 98 41 350 342 334 331 330 323 326 340 344 341 336 333 334 333 333 335 335 335 335 335 335 335
164 162 161 158 155 152 149 146 145 145 145 144 143 141 134 121 118 105 99 109 125 267 298 316 322 321 320 327 343 347 342 334 329 325 325 329 330 330 332 332 332 329 328 328
162 158 153 154 145 141 149 153 157 157 157 157 157 153 145 139 140 146 160 190 233 273 290 299 313 319 334 339 334 328 325 326 332 337 337 334 332 332 330 331 330 329 327 326
156 148 139 143 139 154 163 165 164 165 167 165 159 147 139 136 138 146 169 282 318 320 322 324 327 328 325 320 318 319 322 324 325 327 326 325 325 326 328 328 326 324 323 322
Height
1491 1489 1492 1495 1497 1498 1504 1505 1509 1505 1502 1498 1496 1499 1500 1502 1504 1505 1506 1507 1508 1509 1509 1510 1510 1510 1509 1508 1508 1506 1505 1503 1501 1499 1496 1494 1491 1488 1485 1482 1480 1477 1474 1472
1493 1488 1490 1494 1493 1494 1497 1498 1500 1500 1500 1494 1496 1498 1500 1501 1502 1503 1505 1506 1507 1507 1508 1508 1508 1508 1508 1507 1506 1506 1504 1502 1500 1498 1496 1494 1491 1489 1486 1483 1480 1478 1475 1472
1499 1489 1491 1498 1488 1489 1491 1491 1495 1500 1497 1493 1495 1497 1499 1500 1501 1502 1503 1504 1505 1506 1507 1507 1507 1506 1506 1506 1505 1505 1504 1502 1500 1498 1496 1494 1491 1489 1486 1484 1481 1478 1476 1473
1498 1497 1509 1491 1478 1480 1484 1486 1487 1489 1491 1493 1495 1497 1499 1500 1501 1501 1502 1503 1504 1505 1506 1506 1506 1506 1506 1505 1505 1504 1503 1502 1500 1498 1495 1493 1491 1489 1487 1485 1482 1479 1477 1474
1498 1501 1494 1484 1479 1481 1486 1487 1484 1486 1489 1492 1494 1496 1498 1499 1500 1501 1501 1502 1503 1504 1505 1505 1505 1505 1505 1505 1504 1503 1502 1501 1499 1497 1495 1493 1491 1489 1487 1485 1483 1480 1478 1475
1497 1504 1503 1485 1477 1479 1485 1490 1483 1486 1489 1491 1492 1496 1499 1499 1499 1500 1501 1501 1502 1503 1504 1504 1504 1504 1504 1504 1503 1502 1501 1500 1498 1496 1494 1492 1491 1489 1487 1485 1483 1481 1478 1476
1500 1499 1487 1479 1479 1482 1496 1492 1485 1487 1489 1491 1493 1496 1498 1498 1499 1500 1500 1501 1501 1502 1503 1503 1503 1503 1503 1503 1502 1501 1499 1498 1497 1495 1494 1492 1490 1488 1486 1485 1483 1481 1479 1477
1492 1498 1492 1479 1480 1484 1487 1485 1487 1488 1490 1492 1494 1495 1497 1498 1498 1499 1499 1500 1501 1501 1502 1502 1502 1502 1502 1501 1500 1499 1498 1497 1495 1494 1492 1491 1489 1487 1486 1484 1482 1481 1479 1477
1479 1484 1480 1479 1480 1483 1484 1486 1488 1489 1490 1492 1494 1495 1496 1497 1498 1498 1499 1499 1500 1500 1501 1501 1501 1501 1500 1499 1498 1497 1496 1495 1493 1492 1490 1489 1487 1486 1484 1483 1481 1480 1478 1476
1475 1475 1477 1480 1481 1483 1484 1486 1487 1488 1490 1491 1493 1494 1495 1496 1496 1497 1497 1498 1498 1499 1500 1500 1499 1499 1498 1497 1496 1495 1494 1493 1492 1490 1489 1487 1486 1484 1483 1481 1480 1478 1477 1475
1472 1474 1477 1478 1480 1481 1483 1484 1486 1487 1489 1490 1491 1492 1494 1494 1495 1496 1496 1497 1497 1498 1498 1498 1498 1497 1496 1495 1494 1493 1492 1491 1490 1488 1487 1485 1484 1482 1481 1479 1478 1477 1475 1474
1472 1470 1471 1474 1476 1479 1481 1483 1484 1486 1487 1488 1490 1491 1492 1493 1494 1495 1495 1495 1496 1496 1496 1496 1496 1495 1494 1493 1492 1491 1489 1488 1487 1486 1484 1482 1481 1479 1478 1477 1475 1474 1472 1471
1465 1467 1469 1471 1474 1476 1479 1481 1482 1484 1485 1487 1488 1489 1491 1492 1493 1493 1494 1494 1494 1495 1495 1495 1494 1493 1492 1491 1490 1488 1487 1486 1484 1483 1481 1479 1477 1476 1474 1473 1472 1471 1469 1468
1462 1465 1468 1470 1472 1475 1477 1479 1481 1482 1484 1485 1487 1488 1489 1490 1491 1492 1493 1493 1493 1493 1493 1493 1492 1491 1490 1489 1487 1486 1484 1483 1481 1480 1478 1476 1475 1473 1471 1470 1468 1467 1466 1465
1461 1463 1465 1467 1470 1472 1474 1477 1479 1481 1482 1484 1485 1487 1488 1489 1490 1491 1491 1492 1492 1492 1491 1491 1490 1489 1488 1486 1485 1483 1482 1480 1479 1477 1475 1473 1472 1470 1468 1467 1465 1464 1462 1461
1457 1460 1462 1464 1467 1469 1472 1474 1476 1478 1480 1482 1483 1485 1486 1487 1488 1489 1489 1490 1490 1490 1489 1489 1488 1487 1486 1484 1482 1481 1479 1478 1476 1475 1473 1471 1469 1467 1465 1464 1462 1461 1459 1458
1452 1455 1458 1460 1463 1466 1468 1471 1473 1475 1478 1480 1481 1483 1484 1486 1487 1488 1488 1489 1489 1488 1488 1487 1487 1486 1484 1482 1480 1478 1477 1476 1474 1472 1470 1468 1466 1465 1463 1461 1459 1457 1456 1455
1447 1450 1453 1456 1459 1462 1466 1468 1471 1473 1475 1477 1479 1481 1483 1484 1485 1486 1487 1488 1488 1487 1487 1486 1485 1484 1482 1481 1478 1477 1475 1474 1472 1470 1468 1466 1464 1462 1460 1459 1456 1454 1452 1451
1444 1447 1450 1453 1456 1459 1462 1465 1468 1470 1473 1475 1477 1479 1481 1482 1484 1485 1485 1486 1486 1486 1485 1485 1484 1483 1481 1479 1477 1475 1474 1472 1471 1469 1467 1464 1462 1460 1458 1456 1454 1452 1450 1447
1442 1445 1448 1451 1454 1457 1460 1463 1466 1468 1471 1473 1476 1477 1479 1481 1482 1483 1484 1484 1484 1484 1484 1483 1482 1481 1479 1478 1476 1474 1473 1471 1469 1467 1465 1463 1461 1458 1456 1454 1452 1449 1447 1444
1442 1444 1447 1450 1453 1456 1459 1462 1464 1467 1470 1472 1474 1476 1478 1479 1481 1482 1482 1483 1483 1483 1482 1482 1481 1479 1478 1476 1474 1473 1471 1470 1468 1466 1464 1462 1459 1457 1455 1452 1449 1447 1444 1442
1443 1445 1448 1451 1453 1456 1459 1461 1464 1466 1468 1471 1473 1475 1476 1478 1479 1480 1481 1481 1481 1481 1481 1480 1479 1478 1476 1474 1473 1472 1470 1468 1467 1465 1462 1460 1458 1456 1453 1451 1448 1445 1442 1439
1444 1446 1449 1451 1454 1456 1459 1461 1463 1465 1467 1469 1472 1473 1475 1476 1477 1479 1480 1480 1480 1480 1479 1478 1477 1476 1475 1473 1472 1471 1469 1467 1465 1463 1461 1458 1456 1454 1451 1449 1446 1443 1440 1437
1445 1447 1449 1452 1454 1456 1458 1460 1462 1464 1466 1468 1470 1472 1473 1474 1476 1477 1478 1478 1478 1478 1477 1477 1476 1475 1473 1472 1471 1469 1468 1466 1463 1461 1459 1457 1454 1452 1449 1446 1443 1440 1437 1434
1445 1447 1449 1451 1453 1455 1457 1459 1462 1464 1466 1467 1469 1470 1472 1473 1474 1475 1476 1476 1476 1476 1475 1475 1474 1473 1472 1470 1469 1468 1466 1464 1462 1459 1457 1454 1452 1449 1446 1443 1440 1437 1434 1430
1445 1447 1449 1451 1453 1455 1456 1458 1460 1462 1464 1466 1467 1469 1470 1471 1472 1473 1474 1474 1474 1474 1474 1473 1472 1471 1470 1468 1467 1465 1463 1461 1459 1457 1454 1452 1449 1446 1443 1440 1437 1433 1430 1426
1444 1446 1448 1450 1451 1453 1455 1457 1459 1461 1462 1464 1466 1467 1468 1469 1470 1471 1472 1472 1472 1472 1471 1471 1470 1469 1468 1466 1464 1463 1461 1459 1457 1454 1452 1449 1446 1443 1440 1436 1433 1429 1425 1421